Temp_Advection
nan nan nan nan nan nan nan nan nan nan nan nan nan nan nan nan nan nan nan nan nan nan nan nan nan nan nan nan nan nan nan nan nan nan nan nan nan nan nan nan nan nan nan nan nan nan nan nan nan
nan 0 0 -0 -0 0 -0 -0 -0 -0 -0 0 -0 -0 0 0 0 0 -0 -0 0 0 -0 -0 -0 0 -0 -0 0 0 0 0 0 0 0 -0 -0 -0 -0 -0 -0 -0 -0 -0 -0 -0 -0 -0 nan
nan 0 0 -1 0 -0 -0 -0 -0 -1 -1 0 0 0 0 0 0 -0 -0 -1 -0 0 -0 -0 -0 -1 -1 -0 -0 0 0 0 0 0 0 -0 -0 -0 -0 -0 -0 -0 -0 -0 -0 -0 -0 -0 nan
nan 0 -1 -0 -0 -0 -0 -0 0 -1 -1 0 0 0 0 0 -0 -0 0 0 -0 0 0 -0 -0 -1 -1 -0 -0 -0 -0 0 0 -0 -0 -0 -0 -0 -0 0 0 0 0 0 0 -0 -0 -0 nan
nan -0 -0 0 -0 -0 -0 -1 0 0 -0 -0 0 0 0 0 0 0 0 0 0 0 0 0 0 0 0 0 -0 -0 -0 -0 -0 -0 -0 0 0 0 0 0 0 0 0 0 0 0 0 0 nan
nan -0 -0 -0 -0 -0 -0 -0 -0 0 0 -0 0 0 -0 -0 0 0 1 0 1 1 0 0 0 0 0 0 0 -0 -0 -0 -0 -0 0 0 0 0 0 0 0 0 0 0 0 0 0 0 nan
nan -0 -0 -0 -0 -0 -0 -0 0 0 0 0 -0 -0 -0 -0 0 0 1 1 1 1 1 0 0 0 0 0 0 0 0 -0 0 0 0 0 0 0 0 0 0 0 0 0 0 0 0 0 nan
nan -0 0 -0 -0 -0 -0 -1 -0 0 0 0 -0 0 -0 -0 0 0 1 1 1 1 1 1 0 0 0 0 0 0 0 0 0 0 0 0 0 0 0 0 0 0 0 0 0 0 0 0 nan
nan -0 0 -0 -0 -0 -0 -0 -0 -0 0 -0 -0 -0 -0 0 0 0 0 1 1 1 1 0 1 1 0 0 0 0 0 0 0 0 0 0 0 0 0 0 0 0 0 0 0 0 0 0 nan
nan -0 -0 -0 -0 -0 -0 -0 -1 -0 -0 -0 -0 -0 0 0 1 1 0 0 1 1 0 0 1 0 0 0 0 0 0 0 0 0 0 0 0 0 0 0 0 0 0 0 0 0 -0 0 nan
nan -0 -0 -0 -0 0 0 -0 -0 0 -0 -1 -0 -0 0 1 0 0 1 1 1 1 0 0 1 0 0 1 1 0 0 0 1 1 0 0 0 0 0 0 0 0 0 0 -0 -0 0 0 nan
nan -0 -0 -0 -0 0 -0 -1 -0 -1 -1 -0 0 -0 1 0 -0 0 1 1 1 -0 -0 0 0 0 1 1 0 0 1 1 1 0 0 0 0 0 0 0 0 0 0 -0 -0 -0 0 0 nan
nan -0 -0 -0 -0 -0 -0 0 -1 -2 -1 -0 0 0 0 0 0 1 1 1 -0 -0 -0 0 1 1 0 0 0 1 1 1 0 0 0 0 0 0 -0 0 0 0 -0 -0 -0 0 0 0 nan
nan -0 -1 -1 0 0 0 -0 -0 -2 -1 -0 0 0 0 0 1 1 -1 -1 -1 -1 0 1 1 1 0 0 1 1 1 1 0 1 1 1 0 0 0 0 0 0 0 0 0 0 0 0 nan
nan 0 -0 -1 -0 -0 -0 0 -1 -2 0 0 -0 -0 0 1 1 -2 -1 -0 0 1 0 0 1 0 0 1 1 1 1 1 1 1 1 0 0 0 0 0 0 0 0 -0 0 0 0 0 nan
nan 0 -0 -0 -0 -0 0 0 -1 -1 -1 -1 0 0 0 0 -1 0 2 1 1 0 -0 1 1 0 1 1 1 1 1 1 0 0 0 0 -0 0 0 0 -0 0 0 -0 -0 0 0 0 nan
nan -0 -0 -0 -0 0 0 0 -1 -2 -0 -1 -1 1 1 -0 -0 1 1 0 0 -0 0 1 1 0 1 1 0 1 1 1 0 0 0 0 0 0 0 0 0 0 -0 -0 0 0 0 0 nan
nan 0 -0 -0 -0 -0 -0 -1 -1 -2 -0 -1 -1 -0 0 -1 -1 1 1 1 1 0 1 2 0 0 0 0 1 1 1 1 0 0 0 0 1 1 0 0 0 0 0 0 0 0 0 0 nan
nan -0 -0 -0 -0 0 0 -0 -1 -1 0 -1 -1 -0 -0 -0 0 1 1 0 -0 1 3 1 -0 1 1 1 1 0 1 1 1 1 0 1 1 1 0 0 0 0 0 0 0 0 0 0 nan
nan 0 0 -0 -0 0 0 -1 -1 -0 -0 -0 0 -0 -0 -0 -0 -0 0 -1 -0 3 2 -0 -1 -0 0 1 1 1 1 1 1 1 1 1 1 1 0 0 0 0 0 0 0 0 0 0 nan
nan 0 -0 -0 -0 0 0 -0 -0 -0 -0 0 -0 -0 -0 -1 -0 -0 -0 0 1 1 2 0 -2 -1 2 2 2 1 -1 -0 -0 0 1 1 1 0 0 0 0 0 0 0 0 0 0 0 nan
nan -0 -0 0 0 -0 0 -0 -0 -0 0 -0 -1 -1 -1 -1 -1 -1 -0 1 2 3 3 -1 -1 3 3 2 2 -0 -1 0 1 2 1 1 0 0 0 0 0 0 0 0 0 0 0 0 nan
nan -0 0 0 0 -0 0 -0 -0 -0 0 0 -0 -1 -1 -1 -1 -1 1 2 2 1 1 2 3 3 3 3 2 1 2 3 2 1 0 0 0 0 0 0 0 0 0 0 0 0 0 0 nan
nan 0 0 -0 0 -0 -0 -0 -0 0 0 -0 -0 -0 -0 0 -0 -1 0 0 1 1 1 2 2 2 3 3 2 2 2 2 1 0 -0 0 0 0 0 0 0 0 1 1 0 0 0 0 nan
nan -0 0 -0 0 -0 0 -0 0 0 0 0 0 -0 0 0 0 -0 0 0 0 0 1 1 1 1 1 1 1 1 0 0 0 0 0 0 0 0 1 1 0 0 0 0 0 0 0 0 nan
nan -0 -0 -0 0 -0 -0 -0 0 -0 0 0 -0 -0 0 1 0 -0 -0 -0 0 -0 -0 -0 -1 -0 0 0 -0 -0 -0 0 0 0 0 0 0 0 0 0 0 0 0 0 0 0 0 0 nan
nan -0 -0 0 0 0 -0 -0 -0 -0 -0 -0 -0 -0 0 0 1 1 0 -1 -1 0 0 -0 -0 0 0 0 -0 0 0 -0 -0 0 0 0 0 0 0 0 0 0 0 0 0 0 0 0 nan
nan -0 -0 0 -0 -0 0 0 0 0 0 0 -0 -0 -0 -0 -0 0 0 1 0 0 0 0 -0 -0 -0 -0 -0 0 -0 0 0 1 0 0 1 1 0 0 1 0 0 0 0 0 0 0 nan
nan 0 0 0 0 0 0 0 0 0 0 0 -0 -0 -0 -0 -0 -0 -0 -0 0 0 0 0 0 0 -0 -0 0 -0 0 0 1 1 0 0 1 1 1 0 0 0 0 0 0 1 1 0 nan
nan nan nan nan nan nan nan nan nan nan nan nan nan nan nan nan nan nan nan nan nan nan nan nan nan nan nan nan nan nan nan nan nan nan nan nan nan nan nan nan nan nan nan nan nan nan nan nan nan
Wind_Speed
9 7 5 1 4 5 3 5 2 8 6 6 4 2 7 2 6 5 4 18 29 30 29 28 28 27 26 25 21 18 18 18 17 16 16 15 14 13 11 10 9 9 8 8 8 7 8 7 7
6 5 1 3 4 3 5 4 5 1 3 6 3 2 2 3 5 1 11 24 31 29 28 27 27 26 26 25 23 20 19 18 17 15 15 14 13 12 12 11 10 9 7 7 6 6 5 5 5
5 4 0 4 3 4 4 4 3 9 23 14 3 2 3 4 7 4 13 30 32 28 27 27 26 26 26 25 23 22 21 19 18 16 15 14 13 12 11 11 11 9 8 7 6 5 4 4 4
4 1 4 4 5 6 5 6 5 9 13 8 8 4 4 5 6 9 22 31 32 29 28 27 26 25 24 24 24 23 22 21 20 17 15 15 13 12 10 10 9 8 7 5 5 4 2 1 1
3 2 3 2 5 5 5 6 7 6 7 10 7 4 3 4 6 14 31 32 32 31 29 28 26 24 23 23 24 24 23 22 20 18 16 14 13 12 10 9 8 8 7 6 4 3 2 2 4
1 3 3 3 4 5 5 6 3 4 9 4 2 2 2 5 7 17 32 32 32 30 30 28 26 24 24 24 24 23 23 21 20 18 16 14 12 11 10 9 9 8 7 6 4 4 5 5 6
5 4 3 3 5 5 4 4 2 4 6 2 3 1 5 10 14 20 31 32 32 30 30 29 28 27 25 24 23 22 22 21 20 18 16 14 12 12 11 10 9 8 7 7 6 6 6 7 7
3 4 2 4 3 7 3 14 5 9 4 1 6 4 6 16 19 24 31 33 32 32 30 30 29 29 28 26 24 23 21 20 19 18 17 16 14 12 11 11 11 10 9 8 7 7 7 8 8
4 3 3 5 5 6 5 10 6 10 6 6 7 11 9 9 21 29 33 36 35 34 33 32 32 31 29 27 26 25 23 21 19 19 18 16 14 14 13 12 12 11 10 9 8 7 7 8 8
3 3 8 6 4 4 14 5 20 5 9 6 8 12 13 14 28 35 39 41 40 38 37 36 34 33 31 29 28 27 26 24 22 21 18 17 16 14 13 12 11 10 9 8 7 6 7 7 7
4 5 4 4 14 12 4 14 7 6 4 8 9 12 9 17 32 36 38 40 41 40 38 37 35 33 32 32 30 29 27 25 24 22 20 19 17 15 13 11 9 9 8 8 7 7 7 7 7
3 8 7 9 10 8 6 14 10 17 22 18 8 12 14 19 33 40 41 41 40 40 38 37 35 33 33 31 30 28 27 25 24 22 21 19 17 15 12 11 10 9 9 8 8 7 7 6 6
6 5 10 14 26 27 19 16 11 24 34 29 22 14 19 20 31 41 42 39 38 39 38 38 36 34 34 32 31 29 26 24 23 22 20 19 16 15 12 11 10 8 8 8 7 6 6 6 6
2 8 19 20 26 20 14 11 7 17 30 27 21 20 22 25 28 40 41 42 40 37 37 35 35 35 36 34 31 28 26 24 23 22 20 19 17 15 13 10 9 9 9 9 8 7 6 6 6
7 6 7 11 14 7 6 4 8 20 20 19 18 23 27 28 32 41 43 45 42 38 37 36 33 35 35 34 31 29 27 26 24 23 21 20 18 16 14 12 11 11 10 10 8 7 6 7 7
6 3 3 5 4 7 5 8 13 14 22 26 24 25 32 34 34 33 42 45 42 40 37 35 31 33 35 34 31 30 28 26 25 24 23 22 21 20 17 15 14 12 12 11 9 8 7 7 6
3 6 5 4 5 4 3 5 10 40 21 26 28 20 26 35 34 38 40 42 44 40 36 34 32 34 34 31 29 29 28 28 26 25 25 24 23 22 21 18 16 14 13 12 11 10 9 8 6
8 6 5 5 3 3 9 16 10 33 17 25 30 20 17 31 36 37 39 42 44 43 38 38 36 33 33 33 33 31 31 30 28 27 26 25 25 24 23 20 18 16 14 13 11 10 9 8 6
4 4 5 3 8 5 10 14 13 21 19 23 21 8 7 19 27 31 35 40 41 44 42 41 39 37 38 40 38 35 35 32 31 27 24 24 24 24 23 21 19 17 16 15 13 11 9 8 8
13 11 10 5 10 5 9 15 15 15 16 16 3 4 6 5 11 22 29 36 42 46 44 44 43 40 41 40 37 36 35 32 28 25 24 23 23 23 22 19 17 16 15 14 13 12 10 10 11
13 14 5 9 5 6 8 9 7 8 8 7 3 6 6 9 12 11 22 32 38 45 48 46 46 39 39 41 40 35 31 29 28 27 25 24 24 22 21 19 17 16 15 14 13 13 12 13 14
17 9 11 6 2 4 3 8 4 4 8 2 9 15 17 18 17 16 16 27 36 42 44 48 47 42 44 42 41 36 30 25 27 28 24 24 23 21 20 19 18 17 15 15 15 14 14 13 14
7 7 8 7 5 3 6 5 5 1 7 4 4 9 12 12 14 12 8 18 29 30 35 41 43 43 44 45 40 36 34 31 28 23 20 21 21 20 19 19 18 17 17 17 16 15 14 14 14
4 2 1 0 2 7 9 8 12 7 5 5 2 4 5 8 10 8 5 8 13 20 24 28 32 36 39 39 33 31 29 26 18 18 15 18 18 18 18 19 19 19 18 17 15 14 14 14 14
5 6 2 2 4 9 11 10 16 1 2 4 5 4 6 9 10 10 8 6 9 11 14 18 18 19 19 17 17 13 11 12 13 9 12 13 14 17 17 19 19 17 17 16 15 14 14 12 13
7 7 5 6 4 3 2 7 5 3 4 5 4 7 10 14 16 15 13 9 8 9 10 13 18 21 15 11 10 10 6 6 2 11 12 7 11 13 14 17 18 17 17 18 16 14 13 12 12
11 12 11 5 1 2 5 4 2 2 2 2 4 7 9 14 16 19 20 20 24 19 13 10 9 10 6 1 3 5 6 8 8 9 16 11 10 12 14 15 18 17 17 16 15 14 12 11 11
18 7 3 4 7 8 4 5 6 4 6 4 3 6 10 15 16 19 21 25 18 14 13 7 6 8 7 9 8 14 11 16 13 20 20 14 15 15 17 16 17 16 15 15 14 12 11 10 9
4 15 2 2 4 6 3 6 3 12 10 9 6 12 11 12 17 17 14 15 13 12 11 9 4 7 8 7 10 13 12 14 21 27 21 16 18 18 18 14 13 12 13 15 15 14 12 10 9
2 11 15 6 8 3 1 6 4 7 8 10 10 6 5 10 13 13 11 12 14 13 11 10 10 10 12 11 9 12 17 17 16 23 19 15 17 18 17 15 17 19 14 18 16 14 12 11 10
Wind_Direction
321 328 337 358 47 63 281 263 254 343 9 357 84 128 212 220 177 207 212 176 175 173 170 173 175 172 175 179 179 177 171 166 162 155 151 149 149 145 143 140 137 132 128 121 111 100 88 83 81
317 326 320 99 86 56 272 256 188 262 258 323 240 119 322 250 228 290 148 164 173 173 168 171 172 174 177 179 180 179 176 172 168 162 157 155 154 153 152 150 148 143 136 126 114 103 92 90 85
320 327 306 91 108 184 217 226 215 291 311 271 248 187 232 259 219 209 172 164 169 171 171 173 174 176 180 182 182 181 179 176 174 169 164 160 160 161 159 158 153 147 143 140 129 120 117 106 98
334 322 59 91 226 255 213 286 303 319 318 283 217 206 216 250 276 190 168 163 171 174 173 174 173 176 180 181 182 183 181 178 178 176 173 169 166 166 169 167 161 157 156 157 140 159 160 102 95
330 34 46 28 261 264 249 264 314 307 278 285 190 226 181 255 192 175 167 170 175 178 176 175 175 175 178 179 180 182 181 181 181 181 182 179 174 174 181 180 176 172 170 176 189 205 228 271 289
56 80 52 264 250 257 271 263 294 307 330 335 192 153 224 215 202 176 172 174 179 184 181 178 177 179 180 181 182 182 183 184 185 185 189 190 184 186 189 196 199 199 196 207 225 245 265 272 278
123 85 224 263 276 295 232 353 40 339 327 313 177 180 279 219 197 185 179 179 184 188 186 184 184 184 185 185 185 187 187 187 187 191 194 197 198 201 202 212 220 221 223 232 239 252 264 273 279
149 99 161 251 253 281 276 337 343 345 300 302 186 238 259 220 196 190 186 185 189 193 194 190 190 190 190 188 189 190 192 193 194 196 199 205 208 211 218 222 233 238 238 240 248 256 266 274 278
137 66 210 242 181 254 326 346 334 318 241 215 216 254 262 260 193 186 187 188 194 197 198 196 196 195 195 194 193 193 194 196 200 202 203 212 214 217 226 232 237 238 239 242 249 264 276 284 289
127 153 223 212 202 258 312 319 323 319 272 218 238 254 252 245 196 191 190 192 197 199 199 201 200 200 199 200 199 197 197 199 203 206 209 211 219 223 229 231 233 236 239 246 257 272 282 287 284
182 219 226 259 256 278 271 312 312 280 270 229 244 238 234 220 199 200 200 203 202 202 204 205 204 204 205 204 204 202 200 203 204 208 211 216 222 225 227 229 231 240 245 251 264 271 276 274 270
296 251 242 294 310 321 313 294 290 279 273 289 283 267 231 216 208 207 208 207 206 207 209 208 208 208 210 208 210 210 207 207 206 209 212 218 222 226 228 236 237 236 240 246 251 260 264 267 271
213 273 282 288 295 299 293 253 251 272 280 284 280 245 230 223 220 212 213 213 212 211 211 211 210 212 213 212 214 214 212 211 211 212 215 219 225 233 236 231 229 229 233 243 249 249 256 258 259
249 292 293 299 287 283 265 269 248 256 285 277 261 245 232 222 225 215 215 217 218 215 217 216 215 217 216 216 217 216 213 212 214 216 218 222 227 234 233 227 228 233 241 245 242 239 237 246 258
286 302 292 255 271 254 276 301 237 272 286 293 266 251 240 228 221 224 227 225 225 222 223 225 223 222 216 218 217 214 214 213 214 217 219 224 228 228 229 232 239 243 244 240 237 234 241 252 259
341 297 273 297 335 263 181 273 266 300 319 310 298 269 238 226 227 234 231 229 228 227 227 230 227 223 217 217 216 213 212 215 216 220 226 226 225 223 225 233 235 237 237 236 231 235 242 249 255
270 260 220 302 248 245 187 286 291 309 313 303 301 305 243 230 231 233 232 231 230 232 232 232 226 222 216 214 216 216 215 217 224 226 225 227 229 226 226 231 237 235 230 227 228 231 235 236 237
206 226 236 222 252 325 303 284 285 293 299 291 296 299 254 232 235 234 233 233 231 234 234 231 223 221 218 219 218 218 219 222 223 227 229 231 231 230 231 233 232 229 226 223 226 225 224 222 209
154 215 234 247 278 297 266 270 271 279 291 283 298 310 283 243 244 240 236 237 236 236 233 229 221 219 217 215 215 216 217 218 221 224 229 231 232 234 238 235 230 226 221 218 218 219 216 210 199
242 261 264 268 250 231 266 275 267 265 266 262 268 322 327 295 244 242 240 239 240 238 232 231 226 219 217 219 221 220 217 215 222 226 230 231 232 233 235 236 233 225 221 219 213 212 212 209 200
232 235 237 257 317 281 271 279 244 258 220 174 303 333 322 310 295 252 234 239 241 236 233 231 233 231 225 219 220 218 215 219 224 226 227 230 228 227 228 230 226 225 222 217 214 216 215 217 214
248 194 241 259 289 243 29 294 202 231 256 147 2 349 333 329 310 286 253 236 240 238 233 232 233 232 226 224 222 222 225 230 243 235 235 230 229 227 227 224 224 220 221 219 218 219 220 226 231
236 173 199 223 232 275 177 267 280 333 239 186 1 355 351 354 345 336 247 235 229 219 220 224 223 223 225 218 219 218 226 223 223 222 222 227 231 230 229 226 223 222 222 222 218 218 221 226 232
144 152 223 23 173 259 193 193 262 226 222 130 126 26 27 47 43 50 115 181 198 209 210 208 208 208 209 210 206 207 208 214 219 215 222 236 236 236 233 232 225 222 223 222 221 222 223 224 229
132 112 259 282 195 245 188 206 253 264 181 153 178 148 112 96 87 89 103 150 179 204 202 199 199 199 201 196 201 213 219 243 221 215 228 234 251 250 244 238 235 230 229 229 225 223 224 221 227
188 166 169 227 217 277 290 233 250 115 117 122 146 140 132 117 105 103 106 114 136 158 162 137 120 105 74 69 48 337 356 251 214 245 234 217 249 250 246 245 239 232 231 231 228 224 224 226 227
211 223 206 285 249 321 243 310 315 96 68 90 133 138 139 131 125 120 120 120 122 109 104 91 95 35 30 13 182 174 209 239 233 230 238 234 239 241 240 241 246 240 235 234 230 227 224 222 225
213 154 143 182 224 234 247 263 239 172 189 177 142 136 147 138 134 135 136 137 137 129 123 105 68 64 99 144 167 222 215 230 229 230 237 241 238 235 237 233 240 238 236 236 234 232 228 223 225
144 218 241 159 201 223 240 250 230 186 177 174 168 140 150 156 155 152 151 156 162 158 157 143 154 130 136 158 198 212 221 229 236 234 236 237 243 238 230 229 234 241 247 251 239 225 221 232 241
217 211 194 198 206 216 175 266 316 160 159 145 168 192 163 203 195 199 203 199 202 208 207 220 199 173 167 181 191 212 234 233 239 249 246 237 237 236 240 240 247 260 244 229 224 228 226 223 245
Height
1504 1504 1503 1504 1515 1519 1523 1512 1502 1499 1495 1491 1492 1493 1491 1489 1489 1503 1483 1486 1492 1498 1502 1506 1511 1514 1517 1520 1524 1526 1527 1528 1530 1532 1533 1535 1538 1539 1541 1542 1543 1545 1546 1548 1549 1550 1551 1552 1552
1504 1503 1504 1504 1524 1532 1523 1504 1502 1494 1492 1490 1489 1488 1490 1487 1486 1483 1484 1487 1494 1499 1503 1508 1511 1515 1518 1521 1524 1526 1528 1529 1530 1532 1533 1535 1537 1539 1541 1542 1543 1545 1547 1548 1549 1551 1552 1553 1553
1504 1503 1504 1512 1531 1528 1519 1500 1496 1492 1487 1488 1487 1486 1486 1486 1484 1482 1483 1486 1494 1499 1504 1508 1511 1515 1517 1519 1522 1525 1527 1530 1532 1533 1535 1536 1537 1540 1542 1543 1543 1544 1546 1547 1548 1550 1551 1552 1553
1503 1504 1507 1517 1520 1511 1505 1495 1493 1492 1484 1481 1481 1483 1483 1483 1483 1481 1484 1491 1494 1498 1502 1507 1511 1513 1516 1518 1521 1525 1526 1528 1531 1533 1535 1536 1537 1540 1542 1543 1544 1545 1545 1547 1548 1549 1551 1552 1553
1503 1504 1515 1522 1517 1505 1499 1495 1494 1493 1487 1484 1481 1480 1480 1480 1482 1483 1486 1490 1494 1498 1501 1505 1510 1513 1516 1518 1521 1524 1526 1528 1530 1532 1535 1536 1537 1539 1542 1543 1544 1544 1545 1546 1547 1549 1550 1552 1553
1503 1505 1522 1525 1514 1501 1495 1493 1492 1491 1488 1486 1484 1483 1481 1480 1482 1485 1487 1490 1495 1498 1501 1504 1509 1512 1515 1518 1520 1522 1525 1528 1530 1532 1535 1537 1537 1539 1540 1543 1543 1544 1545 1546 1547 1548 1549 1551 1552
1504 1510 1519 1517 1511 1502 1492 1491 1490 1489 1489 1487 1485 1485 1481 1480 1483 1484 1487 1491 1495 1499 1501 1503 1507 1510 1513 1516 1520 1522 1524 1526 1528 1531 1534 1536 1538 1538 1539 1542 1543 1544 1544 1545 1545 1547 1547 1549 1550
1502 1505 1515 1515 1512 1505 1489 1489 1490 1489 1488 1486 1486 1485 1482 1480 1483 1485 1488 1491 1496 1499 1502 1504 1506 1509 1510 1513 1517 1520 1524 1527 1529 1530 1532 1534 1536 1538 1539 1540 1542 1543 1543 1544 1544 1545 1545 1547 1548
1501 1513 1519 1508 1507 1496 1490 1489 1486 1486 1485 1485 1485 1482 1481 1480 1483 1486 1487 1489 1493 1496 1499 1501 1503 1506 1509 1512 1514 1517 1521 1524 1528 1530 1530 1534 1535 1536 1538 1539 1540 1542 1542 1543 1543 1543 1544 1545 1546
1502 1514 1507 1494 1491 1490 1487 1489 1486 1484 1483 1482 1481 1481 1479 1479 1481 1483 1482 1483 1487 1491 1494 1497 1500 1504 1507 1510 1512 1514 1516 1519 1523 1526 1529 1531 1533 1535 1536 1538 1539 1540 1541 1542 1542 1542 1542 1543 1543
1500 1503 1495 1489 1490 1488 1486 1486 1484 1481 1477 1479 1478 1477 1476 1476 1479 1482 1483 1482 1484 1487 1492 1495 1498 1502 1505 1508 1511 1512 1514 1516 1519 1523 1525 1527 1530 1532 1534 1535 1536 1538 1539 1539 1539 1540 1540 1540 1540
1501 1494 1493 1488 1489 1490 1488 1485 1482 1479 1471 1476 1476 1476 1474 1473 1475 1476 1478 1481 1484 1486 1489 1493 1497 1501 1504 1506 1510 1513 1514 1516 1518 1521 1523 1525 1528 1530 1531 1533 1534 1536 1537 1537 1537 1538 1538 1539 1539
1496 1493 1492 1489 1487 1487 1485 1481 1478 1472 1468 1470 1471 1471 1471 1469 1470 1472 1474 1478 1482 1485 1488 1490 1495 1499 1501 1504 1507 1511 1514 1515 1517 1519 1521 1523 1526 1528 1529 1531 1533 1534 1535 1535 1535 1536 1538 1538 1538
1491 1491 1489 1485 1483 1481 1478 1474 1474 1465 1462 1463 1463 1465 1465 1466 1465 1468 1471 1473 1476 1482 1486 1489 1493 1496 1498 1501 1504 1508 1511 1514 1515 1517 1519 1522 1524 1526 1528 1530 1531 1533 1533 1534 1534 1536 1537 1537 1537
1490 1489 1486 1481 1476 1476 1473 1473 1468 1458 1460 1461 1461 1460 1459 1459 1461 1460 1462 1466 1471 1477 1481 1485 1487 1491 1495 1498 1501 1505 1509 1511 1513 1515 1517 1519 1521 1523 1525 1527 1530 1531 1532 1532 1533 1535 1535 1537 1537
1493 1491 1493 1475 1472 1471 1472 1473 1461 1459 1459 1455 1453 1452 1452 1454 1454 1455 1458 1462 1467 1471 1477 1479 1484 1488 1491 1495 1498 1501 1505 1509 1511 1512 1515 1517 1518 1518 1520 1522 1524 1527 1529 1530 1531 1533 1534 1535 1536
1499 1497 1491 1481 1470 1471 1472 1471 1458 1451 1454 1451 1447 1447 1448 1449 1450 1453 1455 1458 1462 1466 1472 1475 1479 1483 1488 1493 1497 1499 1502 1505 1508 1510 1511 1513 1515 1516 1516 1518 1521 1524 1525 1527 1528 1529 1532 1532 1534
1491 1495 1491 1484 1472 1470 1472 1465 1459 1453 1452 1447 1443 1443 1443 1444 1443 1445 1449 1452 1457 1460 1464 1467 1471 1477 1484 1487 1490 1493 1497 1498 1502 1505 1508 1511 1512 1513 1514 1516 1518 1520 1522 1524 1526 1526 1528 1530 1530
1477 1481 1483 1479 1472 1474 1469 1461 1455 1450 1448 1444 1440 1440 1438 1438 1441 1445 1448 1449 1455 1457 1458 1459 1463 1470 1475 1476 1480 1485 1490 1494 1498 1501 1504 1507 1510 1512 1514 1514 1516 1517 1520 1521 1522 1523 1525 1526 1527
1476 1479 1478 1472 1469 1473 1467 1455 1447 1444 1440 1437 1437 1436 1435 1435 1438 1439 1442 1443 1445 1449 1453 1456 1457 1463 1468 1472 1475 1480 1485 1491 1496 1500 1502 1504 1506 1508 1512 1515 1517 1518 1520 1521 1521 1522 1523 1525 1526
1474 1476 1476 1475 1470 1467 1465 1451 1441 1432 1431 1433 1433 1432 1432 1431 1431 1432 1433 1433 1437 1440 1445 1449 1452 1461 1465 1468 1471 1475 1482 1489 1492 1495 1497 1500 1503 1505 1507 1511 1514 1517 1520 1520 1521 1522 1522 1523 1524
1468 1466 1468 1472 1477 1482 1461 1463 1435 1428 1427 1429 1429 1427 1427 1426 1426 1426 1426 1428 1431 1436 1442 1442 1445 1453 1459 1464 1468 1470 1474 1482 1486 1490 1493 1498 1501 1502 1504 1505 1509 1512 1516 1516 1518 1519 1520 1522 1523
1460 1459 1466 1469 1473 1471 1469 1476 1436 1427 1428 1426 1429 1428 1427 1425 1422 1420 1420 1425 1430 1434 1437 1440 1443 1448 1453 1458 1462 1466 1471 1475 1479 1482 1490 1494 1498 1500 1503 1504 1505 1507 1511 1513 1513 1514 1515 1516 1518
1453 1458 1463 1467 1471 1474 1462 1465 1418 1428 1422 1427 1427 1426 1427 1426 1423 1421 1420 1424 1428 1431 1435 1439 1442 1446 1451 1457 1462 1465 1468 1471 1475 1480 1482 1491 1494 1496 1499 1503 1502 1502 1505 1509 1511 1511 1512 1512 1514
1453 1464 1480 1480 1476 1460 1441 1452 1419 1426 1425 1425 1427 1427 1426 1424 1423 1423 1424 1426 1429 1434 1439 1442 1446 1451 1457 1464 1466 1467 1467 1473 1476 1475 1481 1483 1490 1496 1495 1501 1501 1499 1502 1505 1506 1506 1509 1508 1510
1455 1456 1472 1467 1470 1462 1447 1442 1424 1424 1425 1427 1430 1429 1428 1426 1424 1425 1426 1429 1433 1436 1441 1444 1447 1455 1462 1466 1469 1475 1471 1472 1469 1481 1486 1476 1483 1490 1494 1500 1501 1498 1500 1502 1502 1502 1504 1506 1508
1443 1448 1447 1460 1460 1465 1451 1435 1429 1430 1432 1432 1433 1431 1433 1430 1430 1429 1427 1428 1433 1442 1442 1447 1450 1453 1458 1463 1464 1471 1467 1470 1474 1471 1486 1477 1477 1483 1489 1492 1500 1498 1497 1501 1500 1500 1501 1502 1504
1429 1434 1451 1452 1457 1452 1439 1443 1433 1434 1433 1435 1435 1434 1434 1434 1433 1434 1434 1434 1437 1440 1442 1445 1445 1446 1451 1458 1462 1467 1467 1473 1470 1478 1483 1476 1478 1476 1485 1484 1495 1494 1494 1497 1499 1499 1501 1501 1500
1433 1432 1439 1440 1445 1439 1438 1437 1422 1423 1426 1431 1435 1435 1436 1436 1433 1436 1438 1437 1439 1441 1443 1445 1446 1444 1449 1454 1457 1464 1464 1465 1471 1478 1473 1471 1478 1478 1483 1482 1489 1492 1493 1497 1497 1497 1499 1497 1498
1416 1418 1425 1435 1436 1440 1442 1433 1420 1420 1422 1428 1432 1434 1436 1436 1435 1438 1439 1436 1437 1439 1442 1445 1446 1446 1447 1452 1453 1455 1464 1463 1466 1480 1472 1466 1471 1477 1481 1480 1482 1488 1490 1493 1495 1495 1494 1492 1494